Weather History for VIAR - December, 2013

Change the Weather History Date:

Wednesday, December 25, 2013

  Actual Average Record
Temperature  
Mean Temperature 53 °F -  
Max Temperature 65 °F 62 °F 69 °F (1999)
Min Temperature 41 °F 40 °F 33 °F (2011)
Degree Days  
Heating Degree Days 12    
Growing Degree Days 3 (Base 50)    
Moisture  
Dew Point 48 °F    
Average Humidity 93    
Maximum Humidity 100    
Minimum Humidity 40    
Precipitation  
Precipitation 0.00 in - - ()
Sea Level Pressure  
Sea Level Pressure 30.14 in    
Wind  
Wind Speed 1 mph ()    
Max Wind Speed 8 mph    
Max Gust Speed -    
Visibility 1.9 miles    
Events      
Averages and records for this station are not official NWS values.
T = Trace of Precipitation, MM = Missing Value Source: Averaged Metar Reports

Daily Weather History Graph

Daily Weather History Graph

Search for Another Location

Airport or City:

Trip Planner

Search our weather history database for the weather conditions in past years. The results will help you decide how hot, cold, wet, or windy it might be!

Date:

Astronomy

Dec. 25, 2013 Rise Set
Actual Time 7:28 AM IST 5:33 PM IST
Civil Twilight 7:01 AM IST 6:00 PM IST
Nautical Twilight 6:30 AM IST 6:30 PM IST
Astronomical Twilight 6:01 AM IST 7:00 PM IST
Moon No Moon Rise 12:03 PM IST (12/25)
Length of Visible Light 10h 58m
Length of Day
10h 05m
Waning Gibbous, 53% of the Moon is Illuminated
Dec 25
Waning Gibbous
Dec 25
Last Quarter
Jan 1
New
Jan 8
First Quarter
Jan 16
Full

Hourly Weather History & Observations

Time (IST) Temp. Dew Point Humidity Pressure Visibility Wind Dir Wind Speed Gust Speed Precip Events Conditions
12:00 AM 50.0 °F 50.0 °F 100% 30.15 in 1.9 mi Calm Calm - N/A   Scattered Clouds
12:30 AM 50.0 °F 50.0 °F 100% 30.15 in 1.6 mi Calm Calm - N/A   Scattered Clouds
1:30 AM 48.2 °F 48.2 °F 100% 30.15 in 1.6 mi Calm Calm - N/A   Scattered Clouds
2:00 AM 50.0 °F 50.0 °F 100% 30.12 in 1.6 mi Calm Calm - N/A   Scattered Clouds
2:30 AM 47 °F 47 °F 100% 30.17 in 1 mi Calm Calm - -   Mist
2:30 AM 46.4 °F 46.4 °F 100% 30.12 in 1.6 mi Calm Calm - N/A   Scattered Clouds
3:00 AM 46.4 °F 46.4 °F 100% 30.12 in 1.6 mi Calm Calm - N/A   Scattered Clouds
5:00 AM 44.6 °F 44.6 °F 100% 30.12 in 1.6 mi Calm Calm - N/A   Scattered Clouds
5:30 AM 43 °F 43 °F 100% 30.16 in 1 mi Calm Calm - -   Mist
5:30 AM 42.8 °F 42.8 °F 100% 30.12 in 1.6 mi Calm Calm - N/A   Scattered Clouds
6:00 AM 42.8 °F 42.8 °F 100% 30.12 in 1.6 mi Calm Calm - N/A   Scattered Clouds
6:30 AM 42.8 °F 42.8 °F 100% 30.12 in 1.6 mi Calm Calm - N/A   Mist
7:00 AM 42.8 °F 42.8 °F 100% 30.15 in 1.6 mi Variable 1.2 mph - N/A   Mist
7:30 AM 42.8 °F 42.8 °F 100% 30.15 in 1.6 mi Calm Calm - N/A   Scattered Clouds
8:00 AM 42.8 °F 42.8 °F 100% 30.15 in 1.6 mi Calm Calm - N/A   Scattered Clouds
8:30 AM 44 °F 44 °F 99% 30.21 in 1 mi Calm Calm - -   Mist
8:30 AM 44.6 °F 44.6 °F 100% 30.18 in 1.6 mi Calm Calm - N/A   Scattered Clouds
9:00 AM 48.2 °F 48.2 °F 100% 30.18 in 1.6 mi Calm Calm - N/A   Scattered Clouds
10:00 AM 55.4 °F 51.8 °F 88% 30.21 in 1.9 mi Calm Calm - N/A   Partly Cloudy
10:30 AM 55.4 °F 51.8 °F 88% 30.21 in 2.2 mi Calm Calm - N/A   Partly Cloudy
11:30 AM 59 °F 56 °F 87% 30.22 in 2 mi NW 5.8 mph - -   Mist
1:00 PM 62.6 °F 59.0 °F 88% 30.18 in 3.1 mi WNW 6.9 mph - N/A   Mist
2:00 PM 64.4 °F 60.8 °F 88% 30.15 in 3.1 mi West 8.1 mph - N/A   Mist
2:30 PM 65 °F 47 °F 40% 30.13 in 2 mi West 6.9 mph - -   Haze
5:00 PM 62.6 °F 53.6 °F 72% 30.09 in 3.1 mi West 5.8 mph - N/A   Haze
5:30 PM 59 °F 54 °F 79% 30.10 in 2 mi WNW 4.6 mph - -   Haze
6:00 PM 57.2 °F 53.6 °F 88% 30.09 in 3.1 mi West 5.8 mph - N/A   Haze
6:30 PM 57.2 °F 53.6 °F 88% 30.09 in 2.5 mi Calm Calm - N/A   Haze
7:00 PM 53.6 °F 50.0 °F 88% 30.09 in 2.5 mi Calm Calm - N/A   Haze
7:30 PM 53.6 °F 50.0 °F 88% 30.12 in 2.2 mi Calm Calm - N/A   Mist
8:00 PM 50.0 °F 48.2 °F 94% 30.12 in 2.2 mi Calm Calm - N/A   Mist
8:30 PM 49 °F 48 °F 94% 30.14 in 1 mi Calm Calm - -   Mist
10:00 PM 46.4 °F 46.4 °F 100% 30.12 in 2.2 mi Calm Calm - N/A   Mist
11:30 PM 45 °F 45 °F 100% 30.18 in 1 mi Calm Calm - -   Mist